Cosmos 1842 Rocket - Orbit

View from above orbital plane
View from above orbital plane
View from above satellite
View from above satellite

Ground track
Ground track

The orbit data is extracted from the following two-line orbital elements,

1 17912U 87038B   13168.06722936  .00000149  00000-0  15807-4 0   608
2 17912 082.5023 340.5039 0020176 004.0338 356.1035 14.82050487411244
Epoch (UTC): 17 June 2013 01:36:48
Eccentricity: 0.0020176
inclination: 82.5023°
perigee height: 609 km
apogee height: 637 km
right ascension of ascending node: 340.5039°
argument of perigee: 4.0338°
revolutions per day: 14.82050487
mean anomaly at epoch: 356.1035°
orbit number at epoch: 41124

The dashed part of the orbit path shows where the satellite is in the earth's shadow,  

Developed and maintained by Chris Peat, Heavens-Above GmbH. Please read the updated FAQ before sending e-mail. Imprint. DLR